Auburn, Auburn Municipal Airport, United States
Lat: 38.95N, Lon: 121.07W
Local Info
Past Weather Observations for Sunday, August 31, 2014

NOTE: This archive is for the closest National Weather Service station to Auburn, Auburn Municipal Airport. Information may differ from the station used for current weather conditions.

Click here for Long-term Archive

Time Weather Temperature Dewpoint Humidity Pressure Winds Precip Visibility
23:55
Clear
72°F / 22°C 45°F / 7°C 38% 29.86 in
(1011 mb)
E 3.5 mph
(E 6 kph)
- 10SM
23:35
Clear
72°F / 22°C 45°F / 7°C 38% 29.86 in
(1011 mb)
Calm - 10SM
23:15
Clear
72°F / 22°C 45°F / 7°C 38% 29.86 in
(1011 mb)
E 6.9 mph
(E 11 kph)
- 10SM
22:55
Clear
73°F / 23°C 45°F / 7°C 36% 29.86 in
(1011 mb)
E 5.8 mph
(E 9 kph)
- 10SM
22:35
Clear
73°F / 23°C 45°F / 7°C 36% 29.89 in
(1012 mb)
Calm - 10SM
22:15
Clear
72°F / 22°C 45°F / 7°C 38% 29.89 in
(1012 mb)
E 3.5 mph
(E 6 kph)
- 10SM
21:55
Clear
73°F / 23°C 45°F / 7°C 36% 29.89 in
(1012 mb)
Calm - 10SM
21:35
Clear
72°F / 22°C 45°F / 7°C 38% 29.89 in
(1012 mb)
Calm - 10SM
21:15
Clear
70°F / 21°C 45°F / 7°C 40% 29.89 in
(1012 mb)
Calm - 10SM
20:55
Clear
72°F / 22°C 45°F / 7°C 38% 29.89 in
(1012 mb)
Calm - 10SM
20:35
Clear
72°F / 22°C 45°F / 7°C 38% 29.89 in
(1012 mb)
Calm - 10SM
20:15
Clear
72°F / 22°C 45°F / 7°C 38% 29.86 in
(1011 mb)
Calm - 10SM
19:55
Clear
73°F / 23°C 45°F / 7°C 36% 29.86 in
(1011 mb)
Calm - 10SM
19:35
Clear
72°F / 22°C 43°F / 6°C 36% 29.86 in
(1011 mb)
Calm - 10SM
19:15
Clear
73°F / 23°C 45°F / 7°C 36% 29.86 in
(1011 mb)
Calm - 10SM
18:55
Clear
79°F / 26°C 45°F / 7°C 30% 29.86 in
(1011 mb)
Calm - 10SM
18:35
Clear
82°F / 28°C 46°F / 8°C 28% 29.86 in
(1011 mb)
Calm - 10SM
18:15
Clear
84°F / 29°C 45°F / 7°C 25% 29.86 in
(1011 mb)
SSW 3.5 mph
(SSW 6 kph)
- 10SM
17:55
Clear
86°F / 30°C 45°F / 7°C 24% 29.86 in
(1011 mb)
SSW 3.5 mph
(SSW 6 kph)
- 10SM
17:35
Clear
88°F / 31°C 45°F / 7°C 22% 29.86 in
(1011 mb)
Calm - 10SM
17:15
Clear
88°F / 31°C 45°F / 7°C 22% 29.86 in
(1011 mb)
Calm - 10SM
16:55
Clear
88°F / 31°C 45°F / 7°C 22% 29.86 in
(1011 mb)
WNW 4.6 mph
(WNW 7 kph)
- 10SM
16:35
Clear
88°F / 31°C 45°F / 7°C 22% 29.86 in
(1011 mb)
NW 3.5 mph
(NW 6 kph)
- 10SM
16:15
Clear
88°F / 31°C 45°F / 7°C 22% 29.89 in
(1012 mb)
W 5.8 mph
(W 9 kph)
- 10SM
15:35
Clear
88°F / 31°C 46°F / 8°C 24% 29.89 in
(1012 mb)
Calm - 10SM
15:15
Clear
90°F / 32°C 45°F / 7°C 21% 29.89 in
(1012 mb)
SSW 6.9 mph
(SSW 11 kph)
- 10SM
14:55
Clear
88°F / 31°C 45°F / 7°C 22% 29.89 in
(1012 mb)
W 5.8 mph
(W 9 kph)
- 10SM
14:35
Clear
90°F / 32°C 45°F / 7°C 21% 29.89 in
(1012 mb)
SW 5.8 mph
(SW 9 kph)
- 10SM
14:15
Clear
88°F / 31°C 45°F / 7°C 22% 29.92 in
(1013 mb)
NW 4.6 mph
(NW 7 kph)
- 10SM
13:55
Clear
88°F / 31°C 45°F / 7°C 22% 29.92 in
(1013 mb)
SSW 4.6 mph
(SSW 7 kph)
- 10SM
13:35
Clear
88°F / 31°C 46°F / 8°C 24% 29.92 in
(1013 mb)
SW 6.9 mph
(SW 11 kph)
- 10SM
13:15
Clear
88°F / 31°C 45°F / 7°C 22% 29.92 in
(1013 mb)
SSW 6.9 mph
(SSW 11 kph)
- 10SM
12:55
Clear
86°F / 30°C 46°F / 8°C 25% 29.92 in
(1013 mb)
SW 5.8 mph
(SW 9 kph)
- 10SM
12:35
Clear
84°F / 29°C 46°F / 8°C 27% 29.92 in
(1013 mb)
Calm - 10SM
12:15
Clear
84°F / 29°C 46°F / 8°C 27% 29.95 in
(1014 mb)
SW 4.6 mph
(SW 7 kph)
- 10SM
11:55
Clear
84°F / 29°C 48°F / 9°C 29% 29.95 in
(1014 mb)
SW 3.5 mph
(SW 6 kph)
- 10SM
11:35
Clear
82°F / 28°C 48°F / 9°C 30% 29.95 in
(1014 mb)
Calm - 10SM
11:15
Clear
82°F / 28°C 46°F / 8°C 28% 29.95 in
(1014 mb)
Calm - 10SM
10:55
Clear
82°F / 28°C 46°F / 8°C 28% 29.95 in
(1014 mb)
W 6.9 mph
(W 11 kph)
- 10SM
10:35
Clear
82°F / 28°C 46°F / 8°C 28% 29.95 in
(1014 mb)
W 5.8 mph
(W 9 kph)
- 10SM
10:15
Clear
81°F / 27°C 45°F / 7°C 28% 29.95 in
(1014 mb)
W 5.8 mph
(W 9 kph)
- 10SM
09:55
Clear
81°F / 27°C 45°F / 7°C 28% 29.95 in
(1014 mb)
SSW 4.6 mph
(SSW 7 kph)
- 10SM
09:35
Clear
79°F / 26°C 45°F / 7°C 30% 29.95 in
(1014 mb)
WNW 4.6 mph
(WNW 7 kph)
- 10SM
09:15
Clear
79°F / 26°C 45°F / 7°C 30% 29.95 in
(1014 mb)
WNW 4.6 mph
(WNW 7 kph)
- 10SM
08:55
Clear
79°F / 26°C 43°F / 6°C 28% 29.95 in
(1014 mb)
W 4.6 mph
(W 7 kph)
- 10SM
08:35
Clear
79°F / 26°C 43°F / 6°C 28% 29.95 in
(1014 mb)
WNW 3.5 mph
(WNW 6 kph)
- 10SM
08:15
Clear
77°F / 25°C 43°F / 6°C 30% 29.95 in
(1014 mb)
Calm - 10SM
07:55
Clear
77°F / 25°C 43°F / 6°C 30% 29.92 in
(1013 mb)
Calm - 10SM
07:35
Clear
73°F / 23°C 43°F / 6°C 33% 29.92 in
(1013 mb)
SE 3.5 mph
(SE 6 kph)
- 10SM
07:15
Clear
72°F / 22°C 43°F / 6°C 36% 29.92 in
(1013 mb)
E 5.8 mph
(E 9 kph)
- 10SM
06:55
Clear
70°F / 21°C 41°F / 5°C 35% 29.92 in
(1013 mb)
E 5.8 mph
(E 9 kph)
- 10SM
06:35
Clear
70°F / 21°C 43°F / 6°C 38% 29.92 in
(1013 mb)
ESE 3.5 mph
(ESE 6 kph)
- 10SM
06:15
Clear
66°F / 19°C 41°F / 5°C 40% 29.92 in
(1013 mb)
Calm - 10SM
05:55
Clear
66°F / 19°C 41°F / 5°C 40% 29.92 in
(1013 mb)
E 6.9 mph
(E 11 kph)
- 10SM
05:35
Clear
66°F / 19°C 41°F / 5°C 40% 29.92 in
(1013 mb)
E 8.1 mph
(E 13 kph)
- 10SM
05:15
Clear
66°F / 19°C 41°F / 5°C 40% 29.92 in
(1013 mb)
Calm - 10SM
04:55
Clear
66°F / 19°C 41°F / 5°C 40% 29.89 in
(1012 mb)
ENE 5.8 mph
(ENE 9 kph)
- 10SM
04:35
Clear
66°F / 19°C 41°F / 5°C 40% 29.89 in
(1012 mb)
ENE 4.6 mph
(ENE 7 kph)
- 10SM
04:15
Clear
66°F / 19°C 43°F / 6°C 43% 29.89 in
(1012 mb)
ENE 3.5 mph
(ENE 6 kph)
- 10SM
03:55
Clear
66°F / 19°C 43°F / 6°C 43% 29.89 in
(1012 mb)
E 6.9 mph
(E 11 kph)
- 10SM
03:35
Clear
66°F / 19°C 43°F / 6°C 43% 29.89 in
(1012 mb)
E 6.9 mph
(E 11 kph)
- 10SM
03:15
Clear
66°F / 19°C 43°F / 6°C 43% 29.89 in
(1012 mb)
ESE 9.2 mph
(ESE 15 kph)
- 10SM
02:55
Clear
68°F / 20°C 43°F / 6°C 40% 29.89 in
(1012 mb)
ESE 8.1 mph
(ESE 13 kph)
- 10SM
02:35
Clear
68°F / 20°C 43°F / 6°C 40% 29.89 in
(1012 mb)
ESE 9.2 mph
(ESE 15 kph)
- 10SM
02:15
Clear
70°F / 21°C 43°F / 6°C 38% 29.89 in
(1012 mb)
SSE 4.6 mph
(SSE 7 kph)
- 10SM
01:55
Clear
72°F / 22°C 43°F / 6°C 36% 29.89 in
(1012 mb)
SE 5.8 mph
(SE 9 kph)
- 10SM
01:35
Clear
72°F / 22°C 43°F / 6°C 36% 29.89 in
(1012 mb)
SE 8.1 mph
(SE 13 kph)
- 10SM
01:15
Clear
72°F / 22°C 43°F / 6°C 36% 29.89 in
(1012 mb)
ESE 10.4 mph
(ESE 17 kph)
- 10SM
00:55
Clear
72°F / 22°C 43°F / 6°C 36% 29.89 in
(1012 mb)
ESE 10.4 mph
(ESE 17 kph)
- 10SM
00:35
Clear
73°F / 23°C 43°F / 6°C 33% 29.89 in
(1012 mb)
ESE 10.4 mph
(ESE 17 kph)
- 10SM
00:15
Clear
73°F / 23°C 43°F / 6°C 33% 29.89 in
(1012 mb)
SE 9.2 mph
(SE 15 kph)
- 10SM
Time Weather Temperature Dewpoint Humidity Pressure Winds Precip Visibility


Weather for websites

WeatherForYou.com, LLC is not responsible for any damages or problems caused by this service. Current weather conditions are obtained from the closest station including government and personal stations which may have varying degrees of accuracy. Weather forecasts are derived from the NOAA NDFD. Like all things, this site belongs to Jesus Christ... He just trusts me to maintain it. If you have any questions or comments email webmaster@weatherforyou.com

Copyright © 2014, WeatherForYou.com LLC. All rights reserved.